Terug naar catalogus

THORAD AGENA D DEB

ActiefPO
NORAD 4913·DEBRIS·🇺🇸 United States

Gelanceerd Apr 8, 1970 vanaf Vandenberg Space Force Base

Loading…

Volgende Passages (komende 24 uur)

TLE

VersSource: Space-Track

Epoch: Sep 14, 2026, 06:12 UTC

1 04913U 70025FK  26257.25875516  .00000133  00000-0  11233-3 0  9992
2 04913  99.8117 359.0121 0137206 319.9556  39.1553 14.01743130866462

Volg THORAD AGENA D DEB in realtime met AllMySat

Download on the App Store